This demonstration page uses our WeatherBlox Daily Observations layout. Learn more.

Left ArrowRight Arrow

Hourly Observations for June 17, 2015

Temp ( °F °C ) Dew Point ( °F °C ) Humidity (%) Winds ( mph kmh ) Pressure ( in mb ) Visibility ( mi km ) Precip ( " mm )
5:35 am 05:35 Clear 70 21 64 18 83 83 NW 6 9 30.09 1019 10 16 0.00 0.00
5:55 am 05:55 Sunny 70 21 66 19 88 88 NW 7 11 30.09 1019 10 16 0.00 0.00
6:15 am 06:15 Sunny 68 20 66 19 94 94 Calm 30.09 1019 10 16 0.00 0.00
6:35 am 06:35 Sunny 70 21 66 19 88 88 WNW 6 9 30.12 1020 10 16 0.00 0.00
6:55 am 06:55 Sunny 72 22 66 19 83 83 NNW 6 9 30.12 1020 10 16 0.00 0.00
7:15 am 07:15 Sunny 72 22 68 20 88 88 N 5 7 30.12 1020 10 16 0.00 0.00
7:35 am 07:35 Sunny 73 23 66 19 78 78 NNE 6 9 30.12 1020 10 16 0.00 0.00
7:55 am 07:55 Sunny 73 23 66 19 78 78 NNE 5 7 30.12 1020 10 16 0.00 0.00
8:15 am 08:15 Sunny 77 25 66 19 69 69 NNE 8 13 30.15 1021 10 16 0.00 0.00
8:35 am 08:35 Sunny 75 24 66 19 74 74 NNE 8 13 30.15 1021 10 16 0.00 0.00
8:55 am 08:55 Sunny 75 24 66 19 74 74 NNE 9 15 30.15 1021 10 16 0.00 0.00
9:15 am 09:15 Sunny 75 24 66 19 74 74 NNE 6 9 30.15 1021 10 16 0.00 0.00
9:35 am 09:35 Partly Cloudy 77 25 66 19 69 69 Calm 30.15 1021 10 16 0.00 0.00
9:55 am 09:55 Mostly Cloudy 79 26 66 19 65 65 ESE 3 6 30.15 1021 10 16 0.00 0.00
10:15 am 10:15 Mostly Cloudy 77 25 64 18 65 65 SSE 5 7 30.15 1021 10 16 0.00 0.00
10:35 am 10:35 Cloudy 77 25 66 19 69 69 SSW 8 13 30.15 1021 10 16 0.00 0.00
10:55 am 10:55 Cloudy 77 25 68 20 74 74 Calm 30.15 1021 10 16 0.00 0.00
11:15 am 11:15 Cloudy 79 26 68 20 70 70 SSW 7 11 30.15 1021 10 16 0.00 0.00
11:35 am 11:35 Cloudy 79 26 68 20 70 70 W 7 11 30.15 1021 10 16 0.00 0.00
11:55 am 11:55 Cloudy 79 26 66 19 65 65 ENE 5 7 30.15 1021 10 16 0.00 0.00
12:15 pm 12:15 Cloudy 82 28 64 18 55 55 S 7 11 30.15 1021 10 16 0.00 0.00
12:35 pm 12:35 Mostly Cloudy 82 28 68 20 62 62 S 10 17 30.15 1021 10 16 0.00 0.00
12:55 pm 12:55 Mostly Cloudy 81 27 68 20 66 66 S 8 13 30.15 1021 10 16 0.00 0.00
1:15 pm 13:15 Cloudy 81 27 68 20 66 66 SW 6 9 30.15 1021 10 16 0.00 0.00
1:35 pm 13:35 Cloudy 79 26 68 20 70 70 WSW 8 13 30.15 1021 10 16 0.00 0.00
1:55 pm 13:55 Cloudy with Light Rain 79 26 70 21 74 74 WSW 6 9 30.15 1021 10 16 0.00 0.00
2:15 pm 14:15 Cloudy with Rain 75 24 72 22 89 89 WSW 6 9 30.15 1021 7 11 0.02 0.51
2:35 pm 14:35 Cloudy with Light Rain 75 24 73 23 94 94 WSW 12 19 30.15 1021 10 16 0.03 0.76
2:55 pm 14:55 Cloudy 73 23 72 22 94 94 WSW 7 11 30.15 1021 10 16 0.03 0.76
3:15 pm 15:15 Cloudy 73 23 72 22 94 94 WSW 8 13 30.15 1021 10 16 0.00 0.00
3:35 pm 15:35 Cloudy with Rain 72 22 72 22 100 100 WSW 5 7 30.15 1021 5 8 0.02 0.51
3:55 pm 15:55 Cloudy 72 22 72 22 100 100 SW 5 7 30.12 1020 10 16 0.02 0.51
4:15 pm 16:15 Cloudy 72 22 72 22 100 100 Calm 30.12 1020 10 16 0.00 0.00
4:35 pm 16:35 Cloudy with Light Rain 72 22 72 22 100 100 SSW 5 7 30.12 1020 5 8 0.02 0.51
4:55 pm 16:55 Cloudy with Rain 72 22 70 21 94 94 S 7 11 30.12 1020 10 16 0.02 0.51
5:15 pm 17:15 Cloudy with Rain 72 22 72 22 100 100 WSW 3 6 30.12 1020 7 11 0.00 0.00
5:35 pm 17:35 Cloudy 72 22 70 21 94 94 S 6 9 30.09 1019 10 16 0.01 0.25
5:55 pm 17:55 Cloudy 72 22 72 22 100 100 SSW 5 7 30.09 1019 10 16 0.01 0.25
6:15 pm 18:15 Cloudy 72 22 72 22 100 100 Calm 30.09 1019 10 16 0.00 0.00
6:35 pm 18:35 Cloudy 72 22 72 22 100 100 Calm 30.09 1019 10 16 0.00 0.00
6:55 pm 18:55 Cloudy 72 22 72 22 100 100 Calm 30.06 1018 10 16 0.00 0.00
7:15 pm 19:15 Cloudy 72 22 72 22 100 100 Calm 30.06 1018 10 16 0.00 0.00
7:35 pm 19:35 Cloudy 72 22 72 22 100 100 Calm 30.06 1018 10 16 0.00 0.00
7:55 pm 19:55 Cloudy 72 22 72 22 100 100 WSW 3 6 30.09 1019 10 16 0.00 0.00
8:15 pm 20:15 Cloudy 72 22 72 22 100 100 WSW 3 6 30.09 1019 10 16 0.00 0.00
8:35 pm 20:35 Cloudy 72 22 72 22 100 100 SSW 3 6 30.06 1018 10 16 0.00 0.00
8:55 pm 20:55 Cloudy 72 22 72 22 100 100 Calm 30.06 1018 10 16 0.00 0.00
9:15 pm 21:15 Cloudy 72 22 70 21 94 94 S 8 13 30.06 1018 10 16 0.00 0.00
9:35 pm 21:35 Cloudy with Light Rain 70 21 68 20 94 94 S 7 11 30.06 1018 10 16 0.00 0.00
9:55 pm 21:55 Cloudy with Light Rain 70 21 68 20 94 94 SSW 6 9 30.06 1018 10 16 0.00 0.00
10:15 pm 22:15 Cloudy 70 21 68 20 94 94 Calm 30.06 1018 10 16 0.00 0.00
10:35 pm 22:35 Cloudy with Light Rain 70 21 70 21 100 100 WNW 6 9 30.06 1018 10 16 0.00 0.00
10:55 pm 22:55 Cloudy with Rain 68 20 68 20 100 100 NW 5 7 30.09 1019 3 4 0.15 3.81
11:15 pm 23:15 Cloudy with Rain 68 20 68 20 100 100 Calm 30.09 1019 5 8 0.03 0.76
11:35 pm 23:35 Cloudy with Light Rain 68 20 68 20 100 100 Calm 30.06 1018 7 11 0.05 1.27
11:55 pm 23:55 Cloudy with Light Rain 68 20 68 20 100 100 Calm 30.06 1018 7 11 0.07 1.78

Powered by AerisWeather